Location: Asheville, NC
(35.6000°N, 82.5500°W)
Time: 17:29:15

Vanguard 2 Rocket - Pass Details

Date: 13 March 2018
Orbit: 554 x 3327 km, 32.9° (Epoch: 20 March)

Event Time Altitude Azimuth Distance (km) Brightness Sun altitude
Rises 00:02:34 0° 274° (W) 3,791 10.5 -50.4°
Enters shadow 00:04:19 - 268° (W) 3,289 10.0 -50.6°
Reaches altitude 10° 00:05:00 10° 265° (W) 3,112 - -50.7°
Maximum altitude 00:12:11 36° 201° (SSW) 2,420 - -51.6°
Drops below altitude 10° 00:23:58 10° 142° (SE) 5,108 - -52.9°
Sets 00:29:19 0° 135° (SE) 6,542 - -53.5°
